,,,PA_Meas_PMT16A,,PR_Meas_QMR101_102,,RH_Meas_QMH101,,SR_Meas_QMS101,,TA_Meas_QMH101,,GenWind,,GenWind,
date,time,status,PA,status,PR,status,RH,status,SR,status,TA,status,DirAvg,status,SpdAvg,
2011-02-09, 00:00:04,VALID,1007.32,VALID,0,VALID,102.833,VALID,0,VALID,22.8757,VALID,357,VALID,0.283594,
2011-02-09, 00:01:04,VALID,1007.31,VALID,0,VALID,102.826,VALID,0,VALID,22.8562,VALID,357,VALID,0.212891,
2011-02-09, 00:02:04,VALID,1007.32,VALID,0,VALID,102.818,VALID,0,VALID,22.8368,VALID,357,VALID,0,
2011-02-09, 00:03:04,VALID,1007.29,VALID,0,VALID,102.81,VALID,0,VALID,22.8173,VALID,357,VALID,0,
2011-02-09, 00:04:04,VALID,1007.28,VALID,0,VALID,102.864,VALID,0,VALID,22.7978,VALID,357,VALID,0,
2011-02-09, 00:05:04,VALID,1007.27,VALID,0,VALID,102.879,VALID,0,VALID,22.7978,VALID,357,VALID,0,
2011-02-09, 00:06:04,VALID,1007.27,VALID,0,VALID,102.91,VALID,0,VALID,22.7588,VALID,357,VALID,0,
2011-02-09, 00:07:04,VALID,1007.26,VALID,0,VALID,102.971,VALID,0,VALID,22.7182,VALID,357,VALID,0,
2011-02-09, 00:08:04,VALID,1007.29,VALID,0,VALID,103.039,VALID,0.105969,VALID,22.6987,VALID,357,VALID,0,
2011-02-09, 00:09:04,VALID,1007.29,VALID,0,VALID,103.07,VALID,0,VALID,22.7199,VALID,357,VALID,0,
2011-02-09, 00:10:04,VALID,1007.26,VALID,0,VALID,103.093,VALID,0,VALID,22.7004,VALID,357,VALID,0,
2011-02-09, 00:11:04,VALID,1007.26,VALID,0,VALID,103.131,VALID,0,VALID,22.6809,VALID,357,VALID,0,
2011-02-09, 00:12:04,VALID,1007.26,VALID,0,VALID,103.169,VALID,0,VALID,22.6809,VALID,357,VALID,0,
2011-02-09, 00:13:04,VALID,1007.24,VALID,0,VALID,103.215,VALID,0,VALID,22.6809,VALID,357,VALID,0,
2011-02-09, 00:14:04,VALID,1007.21,VALID,0,VALID,103.23,VALID,0,VALID,22.6597,VALID,357,VALID,0,
2011-02-09, 00:15:04,VALID,1007.23,VALID,0,VALID,103.26,VALID,0,VALID,22.6614,VALID,357,VALID,0,
2011-02-09, 00:16:04,VALID,1007.19,VALID,0,VALID,103.298,VALID,0,VALID,22.6614,VALID,357,VALID,0,
2011-02-09, 00:17:04,VALID,1007.17,VALID,0,VALID,103.329,VALID,0,VALID,22.6597,VALID,357,VALID,0.0351563,
2011-02-09, 00:18:04,VALID,1007.2,VALID,0,VALID,103.39,VALID,0,VALID,22.7004,VALID,357,VALID,0,
2011-02-09, 00:19:04,VALID,1007.19,VALID,0,VALID,103.398,VALID,0,VALID,22.7004,VALID,357,VALID,0,
2011-02-09, 00:20:04,VALID,1007.16,VALID,0,VALID,103.428,VALID,0,VALID,22.6809,VALID,357,VALID,0,
2011-02-09, 00:21:04,VALID,1007.11,VALID,0,VALID,103.405,VALID,0,VALID,22.7004,VALID,357,VALID,0,
2011-02-09, 00:22:04,VALID,1007.11,VALID,0,VALID,103.443,VALID,0,VALID,22.7004,VALID,357,VALID,0,
2011-02-09, 00:23:04,VALID,1007.11,VALID,0,VALID,103.436,VALID,0,VALID,22.6809,VALID,357,VALID,0,
2011-02-09, 00:24:04,VALID,1007.07,VALID,0,VALID,103.413,VALID,0,VALID,22.6809,VALID,357,VALID,0,
2011-02-09, 00:25:04,VALID,1007.05,VALID,0,VALID,103.405,VALID,0,VALID,22.6614,VALID,357,VALID,0,
2011-02-09, 00:26:04,VALID,1007.07,VALID,0,VALID,103.405,VALID,0,VALID,22.6614,VALID,357,VALID,0,
2011-02-09, 00:27:04,VALID,1007.08,VALID,0,VALID,103.398,VALID,0,VALID,22.6614,VALID,357,VALID,0,
2011-02-09, 00:28:04,VALID,1007.1,VALID,0,VALID,103.398,VALID,0,VALID,22.642,VALID,357,VALID,0,
2011-02-09, 00:29:04,VALID,1007.14,VALID,0,VALID,103.398,VALID,0,VALID,22.6437,VALID,357,VALID,0,
2011-02-09, 00:30:04,VALID,1007.15,VALID,0,VALID,103.443,VALID,0,VALID,22.642,VALID,357,VALID,0,
2011-02-09, 00:31:04,VALID,1007.15,VALID,0,VALID,103.451,VALID,0,VALID,22.642,VALID,357,VALID,0,
2011-02-09, 00:32:04,VALID,1007.14,VALID,0,VALID,103.481,VALID,0,VALID,22.6809,VALID,357,VALID,0,
2011-02-09, 00:33:04,VALID,1007.11,VALID,0,VALID,103.504,VALID,0,VALID,22.6809,VALID,357,VALID,0,
2011-02-09, 00:34:04,VALID,1007.12,VALID,0,VALID,103.504,VALID,0,VALID,22.7199,VALID,357,VALID,0,
2011-02-09, 00:35:04,VALID,1007.11,VALID,0,VALID,103.535,VALID,0,VALID,22.6987,VALID,357,VALID,0,
2011-02-09, 00:36:04,VALID,1007.09,VALID,0,VALID,103.527,VALID,0,VALID,22.7199,VALID,357,VALID,0,
2011-02-09, 00:37:04,VALID,1007.08,VALID,0,VALID,103.542,VALID,0,VALID,22.7199,VALID,357,VALID,0,
2011-02-09, 00:38:04,VALID,1007.04,VALID,0,VALID,103.535,VALID,0,VALID,22.7588,VALID,357,VALID,0.0550781,
2011-02-09, 00:39:04,VALID,1007.06,VALID,0,VALID,103.535,VALID,0,VALID,22.7376,VALID,357,VALID,0,
2011-02-09, 00:40:04,VALID,1007.08,VALID,0,VALID,103.497,VALID,0,VALID,22.7394,VALID,357,VALID,0,
2011-02-09, 00:41:04,VALID,1007.13,VALID,0,VALID,103.489,VALID,0,VALID,22.7394,VALID,357,VALID,0,
2011-02-09, 00:42:04,VALID,1007.12,VALID,0,VALID,103.497,VALID,0,VALID,22.7588,VALID,357,VALID,0.00820312,
2011-02-09, 00:43:04,VALID,1007.12,VALID,0,VALID,103.481,VALID,0,VALID,22.7783,VALID,357,VALID,0,
2011-02-09, 00:44:04,VALID,1007.13,VALID,0,VALID,103.481,VALID,0,VALID,22.7571,VALID,357,VALID,0.109375,
2011-02-09, 00:45:04,VALID,1007.12,VALID,0,VALID,103.451,VALID,0,VALID,22.7783,VALID,357,VALID,0,
2011-02-09, 00:46:04,VALID,1007.1,VALID,0,VALID,103.466,VALID,0,VALID,22.7978,VALID,279,VALID,0.44375,
2011-02-09, 00:47:04,VALID,1007.08,VALID,0,VALID,103.466,VALID,0,VALID,22.8173,VALID,237,VALID,0.644922,
2011-02-09, 00:48:04,VALID,1007.07,VALID,0,VALID,103.451,VALID,0,VALID,22.8155,VALID,237,VALID,0.454297,
2011-02-09, 00:49:04,VALID,1007.02,VALID,0,VALID,103.459,VALID,0,VALID,22.8545,VALID,237,VALID,0.0621094,
2011-02-09, 00:50:04,VALID,1007.01,VALID,0,VALID,103.398,VALID,0,VALID,22.8562,VALID,237,VALID,0,
2011-02-09, 00:51:04,VALID,1006.98,VALID,0,VALID,103.359,VALID,0,VALID,22.8562,VALID,237,VALID,0,
2011-02-09, 00:52:04,VALID,1006.95,VALID,0,VALID,103.283,VALID,0,VALID,22.8155,VALID,237,VALID,0,
2011-02-09, 00:53:04,VALID,1006.95,VALID,0,VALID,103.26,VALID,0,VALID,22.8155,VALID,237,VALID,0,
2011-02-09, 00:54:04,VALID,1006.92,VALID,0,VALID,103.184,VALID,0,VALID,22.8173,VALID,237,VALID,0,
2011-02-09, 00:55:04,VALID,1006.9,VALID,0,VALID,103.176,VALID,0,VALID,22.8173,VALID,237,VALID,0,
2011-02-09, 00:56:04,VALID,1006.87,VALID,0,VALID,103.184,VALID,0,VALID,22.8173,VALID,237,VALID,0.162891,
2011-02-09, 00:57:04,VALID,1006.86,VALID,0,VALID,103.184,VALID,0,VALID,22.8368,VALID,237,VALID,0.366016,
2011-02-09, 00:58:04,VALID,1006.86,VALID,0,VALID,103.176,VALID,0,VALID,22.8173,VALID,237,VALID,0.534766,
2011-02-09, 00:59:04,VALID,1006.87,VALID,0,VALID,103.154,VALID,0,VALID,22.8173,VALID,237,VALID,0.3875,
2011-02-09, 01:00:04,VALID,1006.86,VALID,0,VALID,103.138,VALID,0,VALID,22.7978,VALID,237,VALID,0.265234,
2011-02-09, 01:01:04,VALID,1006.89,VALID,0,VALID,103.131,VALID,0,VALID,22.7783,VALID,237,VALID,0.0882813,
2011-02-09, 01:02:04,VALID,1006.87,VALID,0,VALID,103.131,VALID,0,VALID,22.7588,VALID,237,VALID,0.347656,
2011-02-09, 01:03:04,VALID,1006.85,VALID,0,VALID,103.138,VALID,0,VALID,22.7394,VALID,237,VALID,0.421094,
2011-02-09, 01:04:04,VALID,1006.84,VALID,0,VALID,103.138,VALID,0,VALID,22.7004,VALID,237,VALID,0.382813,
2011-02-09, 01:05:04,VALID,1006.86,VALID,0,VALID,103.138,VALID,0,VALID,22.7004,VALID,237,VALID,0.164453,
2011-02-09, 01:06:04,VALID,1006.86,VALID,0,VALID,103.169,VALID,0,VALID,22.6809,VALID,237,VALID,0,
2011-02-09, 01:07:04,VALID,1006.82,VALID,0,VALID,103.184,VALID,0,VALID,22.6614,VALID,237,VALID,0,
2011-02-09, 01:08:04,VALID,1006.8,VALID,0,VALID,103.215,VALID,0,VALID,22.6632,VALID,237,VALID,0,
2011-02-09, 01:09:04,VALID,1006.81,VALID,0,VALID,103.245,VALID,0,VALID,22.6632,VALID,237,VALID,0,
2011-02-09, 01:10:04,VALID,1006.8,VALID,0,VALID,103.276,VALID,0,VALID,22.6225,VALID,237,VALID,0,
2011-02-09, 01:11:04,VALID,1006.77,VALID,0,VALID,103.298,VALID,0,VALID,22.603,VALID,237,VALID,0,
2011-02-09, 01:12:04,VALID,1006.77,VALID,0,VALID,103.321,VALID,0,VALID,22.603,VALID,237,VALID,0,
2011-02-09, 01:13:04,VALID,1006.75,VALID,0,VALID,103.329,VALID,0,VALID,22.5835,VALID,237,VALID,0,
2011-02-09, 01:14:04,VALID,1006.72,VALID,0,VALID,103.359,VALID,0,VALID,22.564,VALID,237,VALID,0,
2011-02-09, 01:15:04,VALID,1006.7,VALID,0,VALID,103.39,VALID,0,VALID,22.564,VALID,237,VALID,0,
2011-02-09, 01:16:04,VALID,1006.66,VALID,0,VALID,103.405,VALID,0,VALID,22.5446,VALID,237,VALID,0,
2011-02-09, 01:17:04,VALID,1006.65,VALID,0,VALID,103.42,VALID,0,VALID,22.5251,VALID,237,VALID,0,
2011-02-09, 01:18:04,VALID,1006.66,VALID,0,VALID,103.42,VALID,0,VALID,22.5446,VALID,237,VALID,0,
2011-02-09, 01:19:04,VALID,1006.64,VALID,0,VALID,103.459,VALID,0,VALID,22.5251,VALID,237,VALID,0,
2011-02-09, 01:20:04,VALID,1006.67,VALID,0,VALID,103.466,VALID,0,VALID,22.5251,VALID,237,VALID,0,
2011-02-09, 01:21:04,VALID,1006.67,VALID,0,VALID,103.497,VALID,0,VALID,22.5056,VALID,237,VALID,0,
2011-02-09, 01:22:04,VALID,1006.68,VALID,0,VALID,103.512,VALID,0,VALID,22.5056,VALID,237,VALID,0,
2011-02-09, 01:23:04,VALID,1006.67,VALID,0,VALID,103.512,VALID,0,VALID,22.5251,VALID,237,VALID,0,
2011-02-09, 01:24:04,VALID,1006.69,VALID,0,VALID,103.55,VALID,0,VALID,22.5251,VALID,237,VALID,0,
2011-02-09, 01:25:04,VALID,1006.68,VALID,0,VALID,103.535,VALID,0,VALID,22.4844,VALID,237,VALID,0,
2011-02-09, 01:26:04,VALID,1006.62,VALID,0,VALID,103.512,VALID,0,VALID,22.4861,VALID,237,VALID,0,
2011-02-09, 01:27:04,VALID,1006.61,VALID,0,VALID,103.558,VALID,0,VALID,22.5056,VALID,237,VALID,0,
2011-02-09, 01:28:04,VALID,1006.62,VALID,0,VALID,103.55,VALID,0,VALID,22.4844,VALID,237,VALID,0.353906,
2011-02-09, 01:29:04,VALID,1006.6,VALID,0,VALID,103.565,VALID,0,VALID,22.4861,VALID,237,VALID,0.3875,
2011-02-09, 01:30:04,VALID,1006.62,VALID,0,VALID,103.535,VALID,0,VALID,22.4667,VALID,237,VALID,0.292578,
2011-02-09, 01:31:04,VALID,1006.62,VALID,0,VALID,103.542,VALID,0,VALID,22.4455,VALID,237,VALID,0.31875,
2011-02-09, 01:32:04,VALID,1006.59,VALID,0,VALID,103.55,VALID,0,VALID,22.4472,VALID,237,VALID,0.328125,
2011-02-09, 01:33:04,VALID,1006.6,VALID,0,VALID,103.55,VALID,0,VALID,22.4472,VALID,237,VALID,0.213281,
2011-02-09, 01:34:04,VALID,1006.6,VALID,0,VALID,103.55,VALID,0,VALID,22.4082,VALID,237,VALID,0.201172,
2011-02-09, 01:35:04,VALID,1006.59,VALID,0,VALID,103.535,VALID,0,VALID,22.387,VALID,237,VALID,0.175391,
2011-02-09, 01:36:04,VALID,1006.58,VALID,0,VALID,103.55,VALID,0,VALID,22.4082,VALID,237,VALID,0,
2011-02-09, 01:37:04,VALID,1006.57,VALID,0,VALID,103.558,VALID,0,VALID,22.3887,VALID,237,VALID,0,
2011-02-09, 01:38:04,VALID,1006.55,VALID,0,VALID,103.55,VALID,0,VALID,22.3481,VALID,237,VALID,0,
2011-02-09, 01:39:04,VALID,1006.55,VALID,0,VALID,103.565,VALID,0,VALID,22.3693,VALID,237,VALID,0,
2011-02-09, 01:40:04,VALID,1006.54,VALID,0,VALID,103.565,VALID,0,VALID,22.3286,VALID,237,VALID,0,
2011-02-09, 01:41:04,VALID,1006.53,VALID,0,VALID,103.588,VALID,0.105969,VALID,22.3693,VALID,237,VALID,0,
2011-02-09, 01:42:04,VALID,1006.54,VALID,0,VALID,103.588,VALID,0,VALID,22.3498,VALID,237,VALID,0,
2011-02-09, 01:43:04,VALID,1006.52,VALID,0,VALID,103.596,VALID,0,VALID,22.3498,VALID,237,VALID,0,
2011-02-09, 01:44:04,VALID,1006.52,VALID,0,VALID,103.619,VALID,0,VALID,22.3498,VALID,237,VALID,0,
2011-02-09, 01:45:04,VALID,1006.49,VALID,0,VALID,103.626,VALID,0,VALID,22.3108,VALID,237,VALID,0,
2011-02-09, 01:46:04,VALID,1006.5,VALID,0,VALID,103.634,VALID,0.105969,VALID,22.2914,VALID,237,VALID,0,
2011-02-09, 01:47:04,VALID,1006.47,VALID,0,VALID,103.619,VALID,0,VALID,22.2702,VALID,237,VALID,0,
2011-02-09, 01:48:04,VALID,1006.45,VALID,0,VALID,103.619,VALID,0,VALID,22.3303,VALID,237,VALID,0,
2011-02-09, 01:49:04,VALID,1006.46,VALID,0,VALID,103.642,VALID,0,VALID,22.3693,VALID,237,VALID,0,
2011-02-09, 01:50:04,VALID,1006.44,VALID,0,VALID,103.642,VALID,0,VALID,22.3887,VALID,237,VALID,0,
2011-02-09, 01:51:04,VALID,1006.4,VALID,0,VALID,103.649,VALID,0,VALID,22.4065,VALID,237,VALID,0,
2011-02-09, 01:52:04,VALID,1006.37,VALID,0,VALID,103.649,VALID,0,VALID,22.4472,VALID,237,VALID,0.00234375,
2011-02-09, 01:53:04,VALID,1006.33,VALID,0,VALID,103.664,VALID,0,VALID,22.4472,VALID,237,VALID,0.429297,
2011-02-09, 01:54:04,VALID,1006.3,VALID,0,VALID,103.664,VALID,0,VALID,22.4667,VALID,237,VALID,0.30625,
2011-02-09, 01:55:04,VALID,1006.31,VALID,0,VALID,103.68,VALID,0,VALID,22.4861,VALID,237,VALID,0,
2011-02-09, 01:56:04,VALID,1006.27,VALID,0,VALID,103.664,VALID,0,VALID,22.4861,VALID,237,VALID,0,
2011-02-09, 01:57:04,VALID,1006.25,VALID,0,VALID,103.687,VALID,0,VALID,22.4667,VALID,237,VALID,0,
2011-02-09, 01:58:04,VALID,1006.25,VALID,0,VALID,103.687,VALID,0,VALID,22.4861,VALID,237,VALID,0,
2011-02-09, 01:59:04,VALID,1006.22,VALID,0,VALID,103.695,VALID,0.105969,VALID,22.426,VALID,237,VALID,0,
2011-02-09, 02:00:04,VALID,1006.22,VALID,0,VALID,103.687,VALID,0,VALID,22.426,VALID,237,VALID,0,
2011-02-09, 02:01:04,VALID,1006.21,VALID,0,VALID,103.664,VALID,0,VALID,22.4472,VALID,237,VALID,0,
2011-02-09, 02:02:04,VALID,1006.18,VALID,0,VALID,103.672,VALID,0,VALID,22.4277,VALID,237,VALID,0,
2011-02-09, 02:03:04,VALID,1006.17,VALID,0,VALID,103.657,VALID,0,VALID,22.4065,VALID,237,VALID,0,
2011-02-09, 02:04:04,VALID,1006.15,VALID,0,VALID,103.649,VALID,0,VALID,22.4082,VALID,237,VALID,0,
2011-02-09, 02:05:04,VALID,1006.12,VALID,0,VALID,103.626,VALID,0,VALID,22.4082,VALID,237,VALID,0,
2011-02-09, 02:06:04,VALID,1006.08,VALID,0,VALID,103.649,VALID,0,VALID,22.4082,VALID,237,VALID,0,
2011-02-09, 02:07:04,VALID,1006.06,VALID,0,VALID,103.626,VALID,0,VALID,22.387,VALID,237,VALID,0,
2011-02-09, 02:08:04,VALID,1006.07,VALID,0,VALID,103.626,VALID,0,VALID,22.3676,VALID,237,VALID,0,
2011-02-09, 02:09:04,VALID,1006.09,VALID,0,VALID,103.634,VALID,0,VALID,22.3887,VALID,237,VALID,0,
2011-02-09, 02:10:04,VALID,1006.07,VALID,0,VALID,103.626,VALID,0,VALID,22.3887,VALID,237,VALID,0,
2011-02-09, 02:11:04,VALID,1006.11,VALID,0,VALID,103.619,VALID,0.105969,VALID,22.3676,VALID,237,VALID,0,
2011-02-09, 02:12:04,VALID,1006.1,VALID,0,VALID,103.626,VALID,0,VALID,22.3498,VALID,237,VALID,0,
2011-02-09, 02:13:04,VALID,1006.13,VALID,0,VALID,103.634,VALID,0,VALID,22.3887,VALID,237,VALID,0,
2011-02-09, 02:14:04,VALID,1006.12,VALID,0,VALID,103.649,VALID,0,VALID,22.3693,VALID,237,VALID,0,
2011-02-09, 02:15:04,VALID,1006.08,VALID,0,VALID,103.626,VALID,0,VALID,22.3498,VALID,237,VALID,0,
2011-02-09, 02:16:04,VALID,1006.09,VALID,0,VALID,103.649,VALID,0,VALID,22.3286,VALID,237,VALID,0,
2011-02-09, 02:17:04,VALID,1006.05,VALID,0,VALID,103.657,VALID,0,VALID,22.3303,VALID,237,VALID,0,
2011-02-09, 02:18:04,VALID,1006.05,VALID,0,VALID,103.634,VALID,0,VALID,22.3108,VALID,237,VALID,0,
2011-02-09, 02:19:04,VALID,1006.03,VALID,0,VALID,103.626,VALID,0,VALID,22.3108,VALID,237,VALID,0,
2011-02-09, 02:20:04,VALID,1006.03,VALID,0,VALID,103.642,VALID,0,VALID,22.3303,VALID,237,VALID,0,
2011-02-09, 02:21:04,VALID,1006,VALID,0,VALID,103.649,VALID,0,VALID,22.3303,VALID,237,VALID,0,
2011-02-09, 02:22:04,VALID,1005.99,VALID,0,VALID,103.657,VALID,0,VALID,22.3108,VALID,237,VALID,0,
2011-02-09, 02:23:04,VALID,1005.98,VALID,0,VALID,103.649,VALID,0,VALID,22.2897,VALID,237,VALID,0,
2011-02-09, 02:24:04,VALID,1006,VALID,0,VALID,103.657,VALID,0,VALID,22.2914,VALID,237,VALID,0,
2011-02-09, 02:25:04,VALID,1006.01,VALID,0,VALID,103.672,VALID,0,VALID,22.2524,VALID,237,VALID,0,
2011-02-09, 02:26:04,VALID,1005.97,VALID,0,VALID,103.68,VALID,0,VALID,22.2329,VALID,237,VALID,0,
2011-02-09, 02:27:04,VALID,1006.01,VALID,0,VALID,103.672,VALID,0,VALID,22.194,VALID,237,VALID,0,
2011-02-09, 02:28:04,VALID,1005.99,VALID,0,VALID,103.664,VALID,0,VALID,22.194,VALID,237,VALID,0,
2011-02-09, 02:29:04,VALID,1005.99,VALID,0,VALID,103.664,VALID,0,VALID,22.155,VALID,237,VALID,0,
2011-02-09, 02:30:04,VALID,1006.02,VALID,0,VALID,103.649,VALID,0,VALID,22.1567,VALID,237,VALID,0,
2011-02-09, 02:31:04,VALID,1006,VALID,0,VALID,103.649,VALID,0,VALID,22.1161,VALID,237,VALID,0,
2011-02-09, 02:32:04,VALID,1005.97,VALID,0,VALID,103.649,VALID,0,VALID,22.0966,VALID,237,VALID,0,
2011-02-09, 02:33:04,VALID,1005.93,VALID,0,VALID,103.649,VALID,0,VALID,22.0771,VALID,237,VALID,0,
2011-02-09, 02:34:04,VALID,1005.95,VALID,0,VALID,103.649,VALID,0,VALID,22.0983,VALID,237,VALID,0.096875,
2011-02-09, 02:35:04,VALID,1005.9,VALID,0,VALID,103.68,VALID,0,VALID,22.0983,VALID,237,VALID,0.221094,
2011-02-09, 02:36:04,VALID,1005.87,VALID,0,VALID,103.68,VALID,0,VALID,22.0576,VALID,237,VALID,0.304297,
2011-02-09, 02:37:04,VALID,1005.88,VALID,0,VALID,103.672,VALID,0,VALID,22.0187,VALID,237,VALID,0.227734,
2011-02-09, 02:38:04,VALID,1005.91,VALID,0,VALID,103.68,VALID,0,VALID,21.9992,VALID,237,VALID,0.294141,
2011-02-09, 02:39:04,VALID,1005.89,VALID,0,VALID,103.695,VALID,0,VALID,21.9603,VALID,237,VALID,0.205078,
2011-02-09, 02:40:04,VALID,1005.88,VALID,0,VALID,103.695,VALID,0,VALID,21.9213,VALID,237,VALID,0.278516,
2011-02-09, 02:41:05,VALID,1005.89,VALID,0,VALID,103.68,VALID,0,VALID,21.9018,VALID,237,VALID,0.107031,
2011-02-09, 02:42:04,VALID,1005.88,VALID,0,VALID,103.672,VALID,0,VALID,21.8434,VALID,237,VALID,0,
2011-02-09, 02:43:04,VALID,1005.86,VALID,0,VALID,103.68,VALID,0,VALID,21.8239,VALID,237,VALID,0,
2011-02-09, 02:44:05,VALID,1005.85,VALID,0,VALID,103.687,VALID,0,VALID,21.8239,VALID,237,VALID,0,
2011-02-09, 02:45:05,VALID,1005.87,VALID,0,VALID,103.687,VALID,0,VALID,21.8045,VALID,237,VALID,0.138281,
2011-02-09, 02:46:05,VALID,1005.85,VALID,0,VALID,103.68,VALID,0,VALID,21.8045,VALID,237,VALID,0,
2011-02-09, 02:47:05,VALID,1005.88,VALID,0,VALID,103.68,VALID,0,VALID,21.7655,VALID,237,VALID,0,
2011-02-09, 02:48:05,VALID,1005.87,VALID,0,VALID,103.703,VALID,0,VALID,21.7655,VALID,237,VALID,0,
2011-02-09, 02:49:05,VALID,1005.85,VALID,0,VALID,103.695,VALID,0,VALID,21.746,VALID,237,VALID,0,
2011-02-09, 02:50:05,VALID,1005.85,VALID,0,VALID,103.71,VALID,0,VALID,21.7655,VALID,237,VALID,0,
2011-02-09, 02:51:05,VALID,1005.86,VALID,0,VALID,103.718,VALID,0,VALID,21.7655,VALID,237,VALID,0,
2011-02-09, 02:52:05,VALID,1005.88,VALID,0,VALID,103.71,VALID,0,VALID,21.785,VALID,237,VALID,0,
2011-02-09, 02:53:05,VALID,1005.89,VALID,0,VALID,103.748,VALID,0,VALID,21.7655,VALID,237,VALID,0.243359,
2011-02-09, 02:54:05,VALID,1005.88,VALID,0,VALID,103.741,VALID,0,VALID,21.746,VALID,237,VALID,0.410547,
2011-02-09, 02:55:05,VALID,1005.88,VALID,0,VALID,103.756,VALID,0,VALID,21.785,VALID,237,VALID,0.436328,
2011-02-09, 02:56:05,VALID,1005.9,VALID,0,VALID,103.764,VALID,0,VALID,21.8061,VALID,237,VALID,0.395312,
2011-02-09, 02:57:05,VALID,1005.89,VALID,0,VALID,103.741,VALID,0,VALID,21.8239,VALID,237,VALID,0.452344,
2011-02-09, 02:58:05,VALID,1005.9,VALID,0,VALID,103.733,VALID,0,VALID,21.8434,VALID,237,VALID,0.232812,
2011-02-09, 02:59:05,VALID,1005.9,VALID,0,VALID,103.764,VALID,0,VALID,21.8434,VALID,237,VALID,0.0429688,
2011-02-09, 03:00:05,VALID,1005.92,VALID,0,VALID,103.779,VALID,0,VALID,21.8629,VALID,237,VALID,0,
2011-02-09, 03:01:05,VALID,1005.93,VALID,0,VALID,103.809,VALID,0,VALID,21.8451,VALID,237,VALID,0,
2011-02-09, 03:02:05,VALID,1005.94,VALID,0,VALID,103.787,VALID,0,VALID,21.8045,VALID,237,VALID,0,
2011-02-09, 03:03:05,VALID,1005.96,VALID,0,VALID,103.809,VALID,0,VALID,21.8045,VALID,237,VALID,0,
2011-02-09, 03:04:05,VALID,1005.96,VALID,0,VALID,103.771,VALID,0,VALID,21.8045,VALID,237,VALID,0,
2011-02-09, 03:05:05,VALID,1005.93,VALID,0,VALID,103.771,VALID,0,VALID,21.8239,VALID,237,VALID,0,
2011-02-09, 03:06:05,VALID,1005.92,VALID,0,VALID,103.779,VALID,0,VALID,21.8045,VALID,237,VALID,0.188672,
2011-02-09, 03:07:05,VALID,1005.91,VALID,0,VALID,103.764,VALID,0,VALID,21.8451,VALID,237,VALID,0.05625,
2011-02-09, 03:08:05,VALID,1005.9,VALID,0,VALID,103.779,VALID,0,VALID,21.8434,VALID,237,VALID,0,
2011-02-09, 03:09:05,VALID,1005.89,VALID,0,VALID,103.802,VALID,0,VALID,21.8239,VALID,237,VALID,0,
2011-02-09, 03:10:05,VALID,1005.85,VALID,0,VALID,103.832,VALID,0,VALID,21.8045,VALID,237,VALID,0,
2011-02-09, 03:11:05,VALID,1005.87,VALID,0,VALID,103.825,VALID,0,VALID,21.7655,VALID,237,VALID,0,
2011-02-09, 03:12:05,VALID,1005.86,VALID,0,VALID,103.825,VALID,0,VALID,21.7477,VALID,237,VALID,0,
2011-02-09, 03:13:05,VALID,1005.87,VALID,0,VALID,103.848,VALID,0,VALID,21.6876,VALID,237,VALID,0,
2011-02-09, 03:14:05,VALID,1005.88,VALID,0,VALID,103.825,VALID,0,VALID,21.6681,VALID,237,VALID,0,
2011-02-09, 03:15:05,VALID,1005.86,VALID,0,VALID,103.832,VALID,0,VALID,21.6487,VALID,237,VALID,0,
2011-02-09, 03:16:05,VALID,1005.87,VALID,0,VALID,103.817,VALID,0,VALID,21.6681,VALID,237,VALID,0,
2011-02-09, 03:17:05,VALID,1005.85,VALID,0,VALID,103.832,VALID,0,VALID,21.6487,VALID,237,VALID,0,
2011-02-09, 03:18:05,VALID,1005.79,VALID,0,VALID,103.825,VALID,0,VALID,21.6681,VALID,237,VALID,0,
2011-02-09, 03:19:05,VALID,1005.82,VALID,0,VALID,103.825,VALID,0,VALID,21.6876,VALID,237,VALID,0,
2011-02-09, 03:20:05,VALID,1005.75,VALID,0,VALID,103.817,VALID,0,VALID,21.7266,VALID,237,VALID,0,
2011-02-09, 03:21:05,VALID,1005.76,VALID,0,VALID,103.787,VALID,0,VALID,21.7655,VALID,237,VALID,0,
2011-02-09, 03:22:05,VALID,1005.77,VALID,0,VALID,103.779,VALID,0,VALID,21.785,VALID,237,VALID,0,
2011-02-09, 03:23:05,VALID,1005.76,VALID,0,VALID,103.787,VALID,0,VALID,21.8045,VALID,237,VALID,0,
2011-02-09, 03:24:05,VALID,1005.8,VALID,0,VALID,103.817,VALID,0,VALID,21.8045,VALID,237,VALID,0,
2011-02-09, 03:25:05,VALID,1005.82,VALID,0,VALID,103.848,VALID,0,VALID,21.785,VALID,237,VALID,0,
2011-02-09, 03:26:05,VALID,1005.8,VALID,0,VALID,103.84,VALID,0,VALID,21.7866,VALID,237,VALID,0,
2011-02-09, 03:27:05,VALID,1005.84,VALID,0,VALID,103.832,VALID,0,VALID,21.8045,VALID,237,VALID,0,
2011-02-09, 03:28:05,VALID,1005.83,VALID,0,VALID,103.809,VALID,0,VALID,21.8045,VALID,237,VALID,0,
2011-02-09, 03:29:05,VALID,1005.85,VALID,0,VALID,103.855,VALID,0,VALID,21.785,VALID,237,VALID,0,
2011-02-09, 03:30:05,VALID,1005.82,VALID,0,VALID,103.848,VALID,0,VALID,21.7655,VALID,237,VALID,0,
2011-02-09, 03:31:05,VALID,1005.81,VALID,0,VALID,103.832,VALID,0,VALID,21.7655,VALID,237,VALID,0,
2011-02-09, 03:32:05,VALID,1005.84,VALID,0,VALID,103.855,VALID,0,VALID,21.7655,VALID,237,VALID,0,
2011-02-09, 03:33:05,VALID,1005.84,VALID,0,VALID,103.817,VALID,0,VALID,21.8061,VALID,237,VALID,0,
2011-02-09, 03:34:05,VALID,1005.85,VALID,0,VALID,103.825,VALID,0,VALID,21.785,VALID,237,VALID,0,
2011-02-09, 03:35:05,VALID,1005.84,VALID,0,VALID,103.802,VALID,0,VALID,21.8045,VALID,237,VALID,0,
2011-02-09, 03:36:05,VALID,1005.84,VALID,0,VALID,103.817,VALID,0,VALID,21.8239,VALID,237,VALID,0,
2011-02-09, 03:37:05,VALID,1005.85,VALID,0,VALID,103.825,VALID,0,VALID,21.8045,VALID,237,VALID,0,
2011-02-09, 03:38:05,VALID,1005.84,VALID,0,VALID,103.817,VALID,0,VALID,21.8239,VALID,237,VALID,0,
2011-02-09, 03:39:05,VALID,1005.84,VALID,0,VALID,103.825,VALID,0,VALID,21.8045,VALID,237,VALID,0,
2011-02-09, 03:40:05,VALID,1005.86,VALID,0,VALID,103.832,VALID,0,VALID,21.8045,VALID,237,VALID,0,
2011-02-09, 03:41:05,VALID,1005.88,VALID,0,VALID,103.832,VALID,0,VALID,21.785,VALID,237,VALID,0,
2011-02-09, 03:42:05,VALID,1005.89,VALID,0,VALID,103.817,VALID,0,VALID,21.7655,VALID,237,VALID,0,
2011-02-09, 03:43:05,VALID,1005.89,VALID,0,VALID,103.787,VALID,0,VALID,21.785,VALID,237,VALID,0,
2011-02-09, 03:44:05,VALID,1005.92,VALID,0,VALID,103.809,VALID,0,VALID,21.785,VALID,237,VALID,0,
2011-02-09, 03:45:05,VALID,1005.94,VALID,0,VALID,103.809,VALID,0,VALID,21.7866,VALID,237,VALID,0,
2011-02-09, 03:46:05,VALID,1005.91,VALID,0,VALID,103.809,VALID,0,VALID,21.7866,VALID,237,VALID,0,
2011-02-09, 03:47:05,VALID,1005.94,VALID,0,VALID,103.817,VALID,0,VALID,21.785,VALID,237,VALID,0,
2011-02-09, 03:48:05,VALID,1005.94,VALID,0,VALID,103.825,VALID,0,VALID,21.785,VALID,237,VALID,0,
2011-02-09, 03:49:05,VALID,1005.93,VALID,0,VALID,103.832,VALID,0,VALID,21.7655,VALID,237,VALID,0,
2011-02-09, 03:50:05,VALID,1005.91,VALID,0,VALID,103.84,VALID,0,VALID,21.7655,VALID,237,VALID,0,
2011-02-09, 03:51:05,VALID,1005.92,VALID,0,VALID,103.832,VALID,0,VALID,21.746,VALID,237,VALID,0,
2011-02-09, 03:52:05,VALID,1005.91,VALID,0,VALID,103.863,VALID,0,VALID,21.7266,VALID,237,VALID,0,
2011-02-09, 03:53:05,VALID,1005.93,VALID,0,VALID,103.87,VALID,0,VALID,21.6876,VALID,237,VALID,0,
2011-02-09, 03:54:05,VALID,1005.93,VALID,0,VALID,103.848,VALID,0,VALID,21.6876,VALID,237,VALID,0,
2011-02-09, 03:55:05,VALID,1005.96,VALID,0,VALID,103.886,VALID,0,VALID,21.6876,VALID,237,VALID,0,
2011-02-09, 03:56:05,VALID,1005.96,VALID,0,VALID,103.893,VALID,0,VALID,21.6681,VALID,237,VALID,0,